{"data":{"norad_id":65282,"epoch":"2026-09-20T13:51:48.990240Z","epoch_age_seconds":110844,"freshness":"FRESH","line1":"1 65282U 25184K   26263.57765035  .00016680  00000+0  51772-3 0  9995","line2":"2 65282  97.2849 311.5051 0000929 107.8922 252.2422 15.33452882 60689","mean_motion":15.33452882,"eccentricity":9.29e-5,"inclination_deg":97.2849,"raan_deg":311.5051,"arg_perigee_deg":107.8922,"mean_anomaly_deg":252.2422,"bstar":0.00051772,"rev_number":6068,"period_min":93.905721975747,"perigee_km":464.88394758245,"apogee_km":466.15549900163,"semimajor_km":6843.656723292,"source":"CELESTRAK","updated_at":"2026-09-21T09:00:35.565459Z"}}